Temp
-9 -8 -8 -7 -6 -6 -8 -8 -8 -8 -8 -8 -8 -8 -8 -8 -7 -7 -7 -7 -7 -7 -7 -7 -7 -7 -7 -7 -7 -6 -6 -6 -7 -7 -6 -6 -6 -6 -6 -7 -7 -7 -7
-10 -9 -9 -9 -9 -8 -9 -9 -8 -8 -8 -8 -8 -8 -8 -8 -8 -7 -7 -8 -8 -8 -7 -7 -7 -6 -7 -6 -6 -7 -7 -7 -7 -6 -7 -6 -5 -6 -6 -6 -6 -7 -7
-10 -9 -10 -9 -10 -10 -9 -9 -8 -8 -8 -8 -8 -8 -8 -8 -8 -8 -8 -8 -8 -7 -8 -8 -6 -7 -7 -6 -6 -7 -6 -6 -6 -7 -6 -6 -6 -6 -6 -6 -6 -6 -7
-10 -10 -10 -9 -9 -10 -9 -9 -9 -9 -8 -8 -8 -8 -8 -8 -8 -8 -8 -7 -8 -7 -7 -7 -8 -7 -7 -7 -8 -7 -7 -6 -6 -6 -7 -7 -6 -7 -7 -6 -6 -6 -6
-10 -10 -9 -9 -8 -8 -9 -9 -9 -9 -8 -8 -8 -8 -8 -8 -7 -7 -7 -7 -7 -7 -7 -7 -7 -6 -6 -6 -7 -7 -6 -7 -6 -6 -6 -7 -7 -7 -8 -7 -7 -7 -7
-10 -9 -9 -9 -8 -7 -7 -8 -8 -8 -7 -7 -7 -7 -7 -7 -7 -7 -7 -7 -7 -7 -7 -7 -6 -6 -6 -6 -6 -6 -6 -6 -6 -6 -6 -7 -7 -8 -7 -8 -8 -7 -8
-10 -9 -9 -8 -8 -7 -7 -7 -7 -7 -7 -7 -7 -7 -7 -7 -7 -7 -7 -7 -7 -7 -7 -6 -6 -6 -7 -6 -6 -6 -6 -6 -5 -5 -6 -7 -7 -7 -8 -8 -8 -9 -8
-10 -9 -9 -8 -8 -7 -7 -7 -7 -7 -7 -7 -7 -7 -7 -7 -7 -7 -7 -6 -6 -7 -6 -6 -6 -6 -6 -6 -6 -6 -6 -6 -6 -6 -6 -5 -6 -7 -8 -8 -9 -9 -9
-9 -8 -8 -8 -8 -8 -7 -7 -7 -8 -8 -8 -7 -7 -7 -7 -7 -7 -6 -6 -5 -5 -6 -6 -6 -6 -6 -7 -6 -6 -6 -6 -6 -6 -6 -6 -6 -6 -7 -8 -8 -8 -9
-9 -8 -8 -7 -7 -7 -7 -7 -7 -8 -8 -8 -8 -7 -7 -7 -7 -7 -7 -6 -6 -6 -6 -6 -6 -6 -6 -6 -7 -7 -6 -7 -6 -7 -7 -7 -6 -6 -7 -7 -8 -9 -9
-8 -8 -8 -8 -8 -8 -8 -8 -8 -8 -7 -7 -7 -7 -7 -7 -7 -7 -6 -7 -7 -7 -6 -6 -6 -6 -6 -7 -7 -7 -7 -7 -7 -7 -7 -7 -8 -8 -8 -8 -9 -9 -10
-9 -8 -8 -8 -8 -8 -8 -8 -7 -7 -7 -7 -7 -7 -7 -6 -6 -6 -6 -6 -6 -6 -6 -6 -6 -6 -6 -6 -6 -7 -7 -7 -8 -8 -8 -8 -8 -8 -9 -9 -8 -9 -9
-9 -9 -9 -8 -8 -8 -8 -7 -7 -7 -7 -7 -6 -6 -6 -6 -6 -6 -7 -7 -6 -6 -6 -6 -6 -7 -6 -6 -6 -7 -7 -7 -7 -8 -8 -8 -8 -8 -8 -9 -9 -9 -9
-9 -9 -9 -9 -8 -8 -8 -8 -8 -7 -7 -7 -7 -7 -7 -7 -7 -7 -7 -7 -7 -7 -7 -7 -7 -7 -7 -7 -7 -7 -7 -7 -7 -8 -8 -8 -8 -8 -8 -8 -9 -9 -9
-9 -9 -9 -9 -8 -8 -8 -8 -8 -7 -7 -7 -7 -7 -7 -7 -7 -7 -7 -7 -7 -7 -7 -7 -7 -7 -7 -7 -7 -7 -7 -7 -7 -7 -8 -8 -8 -8 -8 -9 -9 -9 -9
-9 -9 -9 -9 -8 -8 -8 -8 -8 -8 -7 -7 -7 -7 -7 -7 -7 -7 -7 -7 -7 -7 -7 -7 -7 -7 -7 -7 -7 -7 -7 -7 -7 -7 -8 -8 -8 -8 -9 -9 -9 -9 -9
-8 -9 -9 -9 -8 -8 -8 -8 -7 -7 -7 -7 -7 -7 -7 -7 -7 -7 -7 -7 -7 -7 -7 -7 -8 -8 -8 -8 -8 -8 -8 -8 -7 -8 -8 -8 -8 -8 -9 -9 -9 -9 -9
-8 -8 -8 -8 -8 -8 -8 -7 -7 -7 -7 -7 -7 -7 -7 -7 -7 -7 -7 -7 -7 -7 -7 -8 -8 -8 -8 -8 -8 -8 -8 -8 -8 -8 -8 -8 -8 -8 -8 -9 -9 -9 -10
-8 -8 -8 -7 -7 -7 -7 -7 -7 -7 -8 -8 -7 -7 -7 -7 -8 -8 -8 -8 -8 -8 -8 -8 -8 -8 -9 -9 -9 -9 -8 -8 -8 -8 -8 -8 -8 -8 -8 -8 -9 -9 -9
-7 -7 -7 -7 -8 -8 -7 -7 -7 -8 -8 -8 -7 -8 -8 -8 -8 -8 -8 -8 -8 -8 -8 -9 -9 -9 -9 -9 -9 -9 -9 -9 -9 -9 -9 -9 -8 -8 -8 -8 -8 -9 -10
-7 -7 -7 -7 -8 -8 -8 -8 -8 -8 -8 -8 -8 -8 -8 -8 -8 -8 -8 -8 -9 -9 -9 -9 -10 -10 -9 -9 -9 -9 -9 -9 -9 -9 -9 -9 -9 -9 -9 -9 -9 -9 -9
-8 -8 -8 -8 -8 -8 -8 -8 -8 -8 -8 -8 -8 -8 -8 -9 -9 -9 -9 -9 -9 -10 -10 -10 -10 -10 -10 -10 -10 -10 -10 -10 -10 -10 -10 -10 -10 -10 -10 -10 -10 -10 -10
-8 -8 -8 -8 -8 -8 -8 -8 -8 -8 -8 -8 -9 -9 -9 -9 -9 -9 -9 -9 -10 -10 -10 -10 -10 -10 -11 -11 -11 -11 -11 -11 -11 -11 -11 -11 -11 -11 -11 -11 -11 -11 -11
-8 -8 -8 -8 -8 -8 -8 -8 -8 -8 -9 -9 -9 -9 -9 -9 -9 -9 -10 -10 -10 -11 -11 -11 -11 -11 -11 -11 -12 -12 -12 -12 -12 -12 -12 -12 -12 -13 -12 -12 -12 -12 -12
-8 -8 -8 -8 -8 -8 -8 -8 -8 -8 -9 -9 -9 -9 -9 -9 -9 -10 -10 -11 -11 -11 -11 -11 -11 -12 -12 -12 -12 -12 -13 -13 -13 -13 -14 -14 -14 -14 -14 -14 -14 -13 -13
-8 -8 -9 -8 -8 -8 -8 -8 -8 -8 -9 -9 -9 -9 -9 -9 -10 -10 -11 -11 -11 -11 -12 -12 -12 -12 -13 -13 -13 -13 -14 -14 -14 -14 -15 -15 -15 -14 -14 -14 -14 -14 -14
Height
5919 5919 5917 5914 5913 5912 5915 5917 5919 5920 5921 5922 5922 5921 5922 5924 5925 5924 5923 5922 5920 5921 5919 5918 5917 5916 5915 5913 5911 5911 5911 5910 5909 5908 5908 5908 5907 5907 5906 5907 5908 5907 5905
5915 5918 5916 5913 5911 5910 5911 5914 5918 5919 5919 5918 5919 5921 5922 5922 5920 5921 5921 5918 5915 5914 5913 5910 5908 5907 5906 5906 5907 5906 5904 5904 5904 5903 5901 5902 5902 5902 5901 5901 5902 5901 5900
5914 5914 5914 5914 5912 5913 5914 5915 5917 5918 5918 5918 5918 5920 5921 5919 5920 5919 5914 5909 5908 5904 5907 5903 5899 5895 5896 5897 5897 5898 5896 5897 5897 5897 5896 5894 5895 5895 5895 5896 5896 5896 5894
5911 5913 5911 5913 5913 5913 5914 5915 5915 5915 5916 5917 5917 5919 5919 5918 5918 5916 5907 5906 5907 5907 5905 5900 5896 5895 5892 5889 5889 5888 5886 5885 5885 5886 5884 5884 5885 5886 5887 5888 5889 5890 5889
5911 5911 5910 5911 5911 5911 5912 5913 5915 5916 5916 5916 5916 5917 5918 5917 5916 5913 5910 5908 5906 5904 5901 5899 5897 5897 5892 5891 5888 5884 5884 5882 5877 5872 5873 5873 5875 5878 5879 5880 5883 5884 5883
5909 5910 5910 5910 5909 5909 5910 5910 5911 5912 5913 5914 5914 5914 5913 5912 5912 5910 5907 5904 5902 5900 5899 5897 5894 5893 5890 5887 5885 5880 5879 5879 5873 5865 5867 5868 5865 5870 5872 5874 5876 5876 5877
5908 5909 5909 5910 5909 5909 5909 5909 5910 5911 5911 5912 5911 5911 5911 5910 5908 5907 5904 5902 5899 5897 5894 5892 5891 5889 5885 5883 5881 5877 5875 5872 5871 5867 5866 5865 5863 5860 5862 5866 5868 5868 5868
5906 5908 5908 5907 5907 5908 5908 5909 5910 5910 5910 5910 5909 5908 5908 5907 5905 5903 5901 5898 5896 5894 5891 5889 5886 5883 5883 5879 5877 5874 5873 5869 5868 5865 5863 5861 5858 5855 5857 5857 5859 5860 5861
5905 5907 5909 5908 5905 5905 5906 5907 5907 5907 5907 5906 5905 5904 5904 5902 5900 5897 5896 5894 5892 5890 5887 5884 5882 5880 5878 5875 5873 5869 5867 5865 5864 5861 5860 5857 5855 5850 5850 5852 5851 5852 5852
5903 5904 5905 5904 5904 5903 5903 5903 5903 5903 5902 5901 5900 5900 5899 5897 5895 5893 5892 5890 5887 5886 5883 5880 5877 5874 5872 5870 5865 5864 5861 5858 5858 5857 5854 5853 5850 5849 5847 5847 5847 5847 5848
5901 5900 5901 5901 5900 5900 5899 5899 5899 5899 5898 5897 5897 5895 5894 5892 5890 5888 5885 5883 5881 5878 5877 5875 5872 5868 5865 5862 5860 5858 5855 5854 5853 5850 5848 5847 5845 5844 5844 5843 5843 5842 5842
5898 5898 5898 5898 5898 5898 5897 5896 5895 5894 5893 5892 5891 5891 5889 5886 5884 5882 5879 5876 5874 5872 5869 5866 5864 5862 5859 5855 5853 5851 5848 5846 5844 5844 5843 5840 5839 5839 5837 5838 5839 5840 5841
5894 5893 5894 5895 5895 5894 5894 5893 5891 5889 5887 5886 5886 5885 5883 5880 5878 5877 5875 5871 5867 5864 5860 5857 5854 5852 5851 5848 5845 5843 5840 5838 5836 5836 5835 5834 5832 5832 5833 5833 5833 5833 5833
5889 5890 5890 5891 5890 5891 5891 5889 5887 5885 5884 5882 5880 5878 5877 5875 5872 5869 5866 5863 5861 5857 5854 5851 5848 5844 5841 5839 5836 5834 5831 5830 5828 5827 5826 5825 5825 5824 5823 5822 5823 5823 5824
5881 5883 5886 5887 5887 5887 5886 5884 5883 5882 5880 5877 5875 5873 5870 5868 5865 5862 5859 5855 5852 5849 5846 5843 5841 5838 5834 5831 5828 5826 5824 5821 5819 5817 5817 5815 5814 5813 5813 5811 5811 5811 5813
5874 5875 5878 5879 5881 5882 5880 5879 5878 5876 5874 5872 5870 5867 5863 5861 5858 5855 5852 5849 5845 5842 5838 5834 5831 5828 5825 5822 5818 5815 5813 5811 5809 5807 5806 5804 5803 5802 5802 5800 5799 5799 5800
5859 5869 5870 5873 5875 5875 5875 5874 5872 5870 5867 5865 5863 5859 5856 5854 5850 5847 5845 5842 5838 5835 5831 5827 5824 5820 5818 5815 5812 5808 5804 5800 5799 5798 5796 5794 5793 5791 5790 5788 5787 5786 5786
5859 5863 5869 5870 5869 5870 5868 5867 5865 5862 5860 5857 5854 5851 5848 5845 5842 5839 5836 5833 5830 5827 5823 5819 5816 5812 5809 5806 5803 5801 5798 5794 5791 5788 5787 5784 5782 5780 5779 5777 5775 5774 5773
5854 5861 5864 5864 5864 5862 5861 5859 5857 5855 5852 5849 5845 5842 5840 5837 5834 5831 5828 5825 5821 5817 5813 5809 5806 5804 5801 5798 5795 5793 5790 5786 5783 5780 5776 5773 5771 5769 5767 5765 5763 5762 5760
5856 5856 5856 5855 5855 5855 5854 5852 5850 5847 5844 5841 5837 5835 5830 5828 5826 5823 5820 5816 5813 5809 5805 5802 5799 5795 5792 5789 5786 5783 5780 5776 5772 5769 5765 5761 5758 5756 5753 5751 5748 5747 5747
5851 5850 5848 5848 5848 5848 5846 5845 5842 5838 5836 5833 5830 5827 5823 5821 5818 5814 5811 5807 5803 5799 5796 5793 5790 5786 5783 5779 5775 5771 5767 5764 5760 5757 5753 5750 5745 5742 5738 5736 5734 5731 5730
5846 5845 5844 5842 5842 5840 5837 5835 5833 5830 5828 5825 5822 5819 5816 5813 5810 5807 5803 5799 5796 5792 5788 5784 5780 5776 5772 5769 5764 5760 5756 5751 5747 5742 5739 5735 5731 5727 5723 5721 5718 5715 5713
5839 5838 5837 5837 5836 5834 5833 5830 5827 5823 5820 5817 5814 5811 5807 5804 5801 5797 5794 5790 5787 5783 5778 5774 5769 5764 5760 5756 5752 5747 5743 5739 5734 5729 5724 5719 5714 5710 5707 5704 5701 5698 5697
5831 5831 5831 5830 5829 5829 5827 5823 5819 5815 5811 5808 5804 5801 5798 5794 5790 5786 5783 5779 5776 5772 5768 5763 5759 5754 5749 5743 5738 5732 5727 5722 5717 5712 5707 5703 5698 5693 5689 5686 5683 5680 5679
5825 5824 5824 5822 5820 5818 5815 5812 5809 5805 5802 5798 5795 5791 5787 5783 5780 5776 5772 5769 5765 5761 5756 5751 5746 5740 5734 5728 5722 5716 5709 5703 5698 5692 5688 5683 5679 5675 5671 5668 5665 5662 5659
5816 5816 5815 5813 5812 5809 5805 5802 5798 5794 5790 5787 5784 5781 5777 5773 5769 5766 5762 5758 5754 5749 5743 5738 5732 5726 5719 5713 5706 5699 5693 5687 5681 5675 5671 5666 5662 5657 5653 5649 5646 5643 5640
Wind_Speed
6 10 13 15 12 5 18 15 13 11 11 12 11 12 11 12 11 11 10 10 12 13 14 16 16 17 19 18 19 19 20 20 20 21 20 17 18 21 22 21 23 23 21
1 8 13 13 13 4 19 17 14 12 11 11 11 12 11 13 13 13 14 14 16 17 20 25 24 26 25 24 21 24 26 25 26 27 26 24 22 21 21 21 21 23 22
2 7 7 8 4 3 6 11 11 12 11 11 10 11 11 13 15 14 17 21 23 21 15 27 32 21 21 29 35 34 34 31 33 32 32 31 27 24 25 22 22 22 21
6 9 7 6 5 4 6 9 11 11 10 9 11 13 14 15 17 21 26 17 23 21 16 18 18 22 18 16 8 14 19 24 36 41 37 36 34 30 26 25 25 22 23
9 11 10 10 7 6 9 11 11 11 12 11 12 14 14 13 13 17 19 21 17 15 16 15 14 12 15 18 13 13 16 18 18 30 44 42 38 34 29 29 26 27 25
9 13 11 9 9 6 4 7 10 11 11 10 11 12 12 14 15 17 20 23 23 21 15 15 16 16 12 13 19 15 17 15 17 16 27 38 42 34 37 30 27 30 27
11 11 8 8 7 7 6 6 6 9 10 11 13 15 15 17 18 19 21 23 22 21 20 16 16 16 17 17 18 18 18 19 19 15 14 14 33 40 37 32 33 32 34
13 10 7 7 7 8 8 9 10 10 11 13 15 17 18 18 19 18 18 18 17 17 20 19 19 19 18 18 21 21 20 19 20 18 17 18 19 28 39 40 39 39 37
10 11 10 9 7 6 7 8 10 11 13 15 17 19 19 18 18 18 18 17 18 21 23 23 23 22 21 21 21 23 23 23 21 21 21 19 17 18 26 37 37 41 34
15 14 9 8 10 9 9 11 13 15 17 19 19 18 18 18 19 20 20 21 21 20 21 23 24 25 25 25 24 26 26 25 23 23 24 23 22 17 17 20 22 23 27
14 12 11 12 14 16 15 16 16 17 18 17 16 16 18 19 18 18 22 23 23 23 24 24 26 27 28 28 27 27 29 29 26 25 26 27 24 22 18 19 21 23 17
16 14 15 16 15 17 18 16 14 14 14 15 16 17 20 21 23 23 25 25 26 27 27 27 26 25 27 28 29 30 29 30 29 27 25 28 27 27 27 25 24 23 23
16 15 14 17 16 15 13 12 11 12 14 17 20 21 22 25 26 27 26 26 27 28 28 28 28 27 26 25 27 29 30 31 32 31 28 28 30 31 30 31 32 33 33
19 17 16 17 14 13 12 9 11 13 16 19 20 23 26 28 29 29 29 27 27 27 28 28 28 29 29 30 29 29 30 31 31 32 33 34 33 33 34 35 35 36 36
23 21 20 19 17 14 10 12 14 17 19 21 23 26 27 29 29 29 29 29 29 28 27 26 28 30 31 32 33 32 31 32 33 34 34 35 38 38 37 38 39 39 38
31 25 21 20 16 13 14 17 18 19 22 23 26 28 29 30 31 30 29 29 29 28 29 31 32 31 31 32 34 35 33 31 33 34 34 33 34 36 39 41 43 43 41
36 27 19 11 13 14 17 19 23 23 24 26 28 29 29 30 31 30 29 29 29 30 31 32 31 30 31 31 30 31 33 33 30 28 29 31 33 34 35 36 38 41 43
9 10 12 13 14 16 18 21 24 26 27 28 29 31 31 31 30 30 29 30 31 31 32 31 30 31 30 29 29 29 29 30 31 31 31 33 34 34 35 36 37 38 39
1 8 13 12 14 16 20 24 26 27 27 29 31 33 33 31 31 31 31 31 32 32 33 32 32 31 30 31 31 32 33 35 36 37 39 39 38 39 38 38 38 39 40
10 13 13 13 15 19 22 24 26 27 29 31 33 34 33 32 32 32 32 33 33 32 32 32 32 33 34 34 35 36 37 38 40 41 42 43 45 45 44 44 44 43 43
13 13 14 17 19 21 22 23 26 28 31 33 33 32 32 33 33 34 34 34 35 34 34 35 35 35 37 38 39 40 40 41 41 41 41 42 45 46 47 49 49 48 48
16 16 17 19 21 22 24 26 28 31 33 33 33 32 33 33 33 33 34 34 34 34 35 36 38 38 38 39 40 41 42 43 45 46 45 46 46 48 48 48 47 47 48
19 20 20 22 23 25 27 29 31 32 32 32 32 33 33 33 34 34 34 35 35 36 38 40 40 41 42 44 45 46 46 47 49 50 51 51 51 51 50 50 51 49 48
22 22 23 24 25 27 29 30 31 32 32 32 33 33 33 34 35 36 35 35 36 38 41 42 42 43 46 48 50 51 52 53 54 55 54 53 52 51 52 52 52 51 51
24 25 26 27 27 28 29 31 33 34 33 33 33 34 35 36 37 37 37 37 39 42 44 44 45 47 49 51 53 54 55 55 55 53 51 50 49 49 49 48 49 51 52
26 27 27 29 30 30 32 35 36 36 35 34 34 35 37 38 38 38 38 39 42 44 45 45 47 50 53 55 56 54 52 52 51 49 47 47 48 48 48 48 48 48 50
Wind_Direction
8 355 355 353 4 223 206 218 217 209 214 225 231 245 265 278 293 302 297 305 312 305 298 292 288 279 275 274 280 277 269 265 264 270 267 257 260 260 257 253 255 252 248
71 6 354 352 13 29 191 205 215 225 230 233 242 251 262 283 293 307 314 305 295 290 290 285 277 277 275 269 261 267 267 264 260 261 262 260 259 261 260 260 257 254 254
54 9 348 332 7 81 193 208 212 222 235 240 249 267 280 289 304 311 293 279 278 297 336 348 272 349 294 270 274 275 266 265 265 256 255 260 259 255 255 257 259 260 258
9 338 336 301 286 240 200 206 218 224 235 250 274 288 297 300 311 303 324 16 352 343 347 343 11 3 356 359 336 288 284 285 268 251 246 248 248 250 251 252 253 255 259
350 332 315 292 285 267 252 245 245 249 257 274 280 280 289 299 307 311 313 321 340 338 341 341 337 326 342 327 328 314 310 310 288 263 241 245 246 245 245 249 253 256 258
315 327 308 285 283 290 267 252 263 266 274 275 280 293 303 308 314 316 318 321 325 327 329 321 316 312 313 307 309 316 308 309 336 334 238 248 250 242 251 246 249 252 257
292 305 288 261 253 260 269 275 273 273 279 284 289 293 297 300 307 314 315 315 316 317 317 323 319 314 308 298 295 300 302 308 312 327 337 290 266 262 246 245 246 251 256
276 294 261 246 227 232 247 258 264 274 280 283 289 295 298 301 307 310 309 311 310 312 311 314 312 311 305 304 301 296 295 296 301 305 309 314 310 260 240 248 242 248 254
281 295 269 267 260 272 273 280 287 294 296 297 298 304 313 316 308 308 312 311 309 309 308 308 305 303 301 299 296 298 296 293 292 294 296 298 305 302 264 251 260 256 254
261 267 274 286 275 279 281 280 295 300 303 304 306 311 306 302 307 309 305 303 303 302 300 300 300 299 297 294 294 292 293 295 293 288 286 289 292 294 280 265 258 259 254
255 276 304 313 309 300 295 291 291 291 293 297 301 303 307 309 304 303 305 305 306 305 301 297 294 294 294 293 291 289 289 289 292 291 289 288 284 284 277 261 250 259 256
268 286 308 306 297 286 285 289 288 289 297 306 314 310 303 304 306 308 310 310 308 305 303 300 297 295 292 288 285 284 285 286 288 288 286 283 280 273 269 266 267 264 260
262 269 283 286 286 283 283 285 289 300 309 312 309 308 309 308 309 309 308 306 303 302 302 303 301 300 298 295 290 286 285 283 283 283 281 278 277 277 271 267 266 266 267
256 264 269 272 266 263 273 287 300 304 305 306 309 309 307 310 311 310 308 305 303 304 304 301 299 298 297 296 293 291 288 285 283 278 277 275 274 273 274 273 268 264 265
242 250 257 256 252 257 276 290 295 301 301 303 301 301 307 309 308 308 307 307 308 307 304 302 300 298 295 293 291 287 283 283 285 281 276 272 271 270 269 270 271 272 273
238 233 239 234 252 267 282 288 293 292 292 295 300 306 307 308 309 308 307 306 306 304 304 303 302 299 296 296 296 295 294 289 284 283 284 281 277 275 272 269 269 270 270
223 214 227 234 259 274 283 289 288 289 296 301 305 305 307 309 307 306 305 304 304 304 304 304 302 300 299 296 295 294 294 297 298 292 287 285 284 283 279 277 276 276 275
179 187 232 249 267 275 282 285 289 296 302 307 305 307 310 309 306 304 304 304 304 304 305 305 303 303 302 298 297 299 298 297 297 297 294 290 287 284 283 282 281 279 275
215 234 245 259 271 283 288 290 296 303 308 307 308 310 309 307 304 303 303 305 307 308 308 307 305 304 302 300 298 295 293 293 292 292 292 290 287 285 282 280 281 282 281
256 263 277 287 289 288 290 296 301 306 307 307 308 307 307 306 303 304 304 303 305 306 306 304 302 302 300 298 296 295 293 292 290 289 288 287 285 284 281 280 280 277 274
259 270 280 284 288 290 295 300 305 307 306 307 305 304 303 301 301 301 302 303 304 303 302 301 301 300 299 300 300 299 298 297 294 292 290 289 289 286 284 281 279 278 276
279 284 286 290 291 297 304 306 305 304 304 303 301 299 298 297 297 297 298 299 299 298 298 300 301 301 301 302 302 301 300 299 298 296 295 292 290 287 285 284 282 281 278
283 289 292 292 296 301 303 303 301 301 301 299 297 297 297 298 297 297 298 298 297 297 299 301 302 302 303 303 302 300 299 298 297 296 296 295 292 289 286 283 283 282 279
282 285 284 286 291 297 300 301 303 303 302 300 299 300 300 299 299 299 298 296 296 298 301 302 301 302 303 303 303 302 302 301 299 298 296 293 290 288 286 284 282 280 277
279 281 281 285 290 296 300 305 305 303 301 301 301 301 300 299 298 297 296 295 296 299 301 302 302 304 305 306 305 304 303 302 300 298 297 295 292 288 285 282 280 279 278
280 283 286 289 295 300 303 305 306 304 301 301 300 299 297 296 295 295 294 295 297 300 303 304 306 307 307 307 306 305 304 303 301 299 298 299 298 295 291 289 285 282 279